• Join FlightAware (Why Join?)
  • Login
  • US Flag 
05:03AM EDT


 

Airport Tracker/Info


-or-


 

Live Flight TrackerFlight Track Log ✈ EMD24 ✈ 28-Jun-2013 ✈ KAPA - KGLD

Flight Track Log - Related Links

Times and Time Zones

All times are in EDT time to prevent confusion due to time zone crossing. See the EMD24 flight status page for this flight to view local times or setup timezone preferences in your user account.

Time Position Orientation Groundspeed Altitude Reporting Facility
EDT Latitude Longitude Course Direction KTS MPH feet Rate Location/Type
05:58PM 39.5667 -104.8000 90° East 151 174 7,800  Level Denver TRACON
05:59PM 39.5333 -104.7500 131° Southeast 196 226 8,000 120 Climbing Denver TRACON
06:00PM 39.5000 -104.7000 131° Southeast 212 244 8,100  Climbing Denver TRACON
06:01PM 39.4647 -104.6533 134° Southeast 209 241 8,000 -60 Descending Denver Center
06:02PM 39.4300 -104.5953 128° Southeast 206 237 8,000  Level Denver Center
06:03PM 39.8000 -104.6170 90° East  Level FlightAware Approximate
06:03PM 39.3972 -104.5289 123° Southeast 205 236 8,000  Level Denver Center
06:04PM 39.3906 -104.4594 97° East 204 235 8,000 420 Level Denver Center
06:05PM 39.4186 -104.4039 57° Northeast 188 216 8,900 1,020 Climbing Denver Center
06:06PM 39.4372 -104.3456 68° East 173 199 10,200 1,020 Climbing Denver Center
06:07PM 39.4289 -104.2847 100° East 172 198 11,100 780 Climbing Denver Center
06:08PM 39.4228 -104.2186 97° East 173 199 11,900 420 Climbing Denver Center
06:09PM 39.4158 -104.1483 97° East 195 224 12,000 240 Climbing Denver Center
06:10PM 39.4081 -104.0644 97° East 218 251 12,500 900 Climbing Denver Center
06:11PM 39.4017 -103.9992 97° East 185 213 13,900 1,020 Climbing Denver Center
06:12PM 39.3994 -103.9375 93° East 173 199 14,700 840 Climbing Denver Center
06:13PM 39.3992 -103.8697 90° East 175 201 15,700 960 Climbing Denver Center
06:14PM 39.4000 -103.8086 89° East 170 196 16,800 600 Climbing Denver Center
06:15PM 39.3994 -103.7375 91° East 180 207 17,000 60 Climbing Denver Center
06:16PM 39.3978 -103.6742 92° East 207 238 17,000  Level Denver Center
06:17PM 39.3758 -103.5731 106° East 239 275 17,000  Level Denver Center
06:18PM 39.3544 -103.4897 108° East 246 283 17,000  Level Denver Center
06:19PM 39.3353 -103.4033 106° East 248 285 17,000  Level Denver Center
06:20PM 39.3192 -103.3186 104° East 246 283 17,000  Level Denver Center
06:21PM 39.2911 -103.2156 109° East 254 292 17,000  Level Denver Center
06:22PM 39.2506 -103.1381 124° Southeast 259 298 17,000 -60 Level Denver Center
06:23PM 39.2089 -103.0622 125° Southeast 260 299 16,900 -60 Descending Denver Center
06:24PM 39.1628 -102.9886 129° Southeast 263 303 16,900  Level Denver Center
06:25PM 39.1189 -102.9142 127° Southeast 263 303 16,900  Level Denver Center
06:26PM 39.0944 -102.8275 110° East 260 299 16,900  Level Denver Center
06:28PM 39.0750 -102.7250 104° East 255 293 16,900  Level Denver Center
06:29PM 39.0561 -102.6347 105° East 255 293 16,900  Level Denver Center
06:30PM 39.0392 -102.5486 104° East 259 298 16,900  Level Denver Center
06:31PM 39.0200 -102.4514 104° East 253 291 16,900  Level Denver Center
06:32PM 39.0403 -102.3761 71° East 236 272 16,900  Level Denver Center
06:33PM 39.0778 -102.2983 58° Northeast 229 264 16,900  Level Denver Center
06:34PM 39.1094 -102.2331 58° Northeast 226 260 16,900  Level Denver Center
06:35PM 39.1442 -102.1531 61° Northeast 230 265 16,900  Level Denver Center
06:36PM 39.1789 -102.0878 56° Northeast 231 266 16,900 60 Level Denver Center
06:37PM 39.2256 -102.0211 48° Northeast 224 258 17,100 -840 Climbing Denver Center
06:38PM 39.2581 -101.9725 49° Northeast 225 259 15,200 -3,180 Descending Denver Center
06:39PM 39.3058 -101.9008 49° Northeast 236 272 10,600 -2,700 Descending Denver Center
06:40PM 39.3628 -101.8431 38° Northeast 233 268 9,700 -900 Descending Denver Center
06:42PM 39.3706 -101.6990 63° Northeast  Level Estimated
06:49PM 39.3706 -101.6990 63° Northeast  Level Estimated